Location: Kalisz
(51.7636°N, 18.0893°E)
Time: 06:00:10
(UTC+02:00)

ISS - Pass Details

Date: 26 March 2019
Orbit: 408 x 410 km, 51.6° (Epoch: 22 April)

Event Time Altitude Azimuth Distance (km) Brightness Sun altitude
Rises 21:00:16 0° 271° (W) 2,338 0.8 -24.7°
Reaches altitude 10° 21:02:21 10° 272° (W) 1,476 -0.4 -25.0°
Enters shadow 21:03:47 24° 272° (W) 902 -1.6 -25.1°
